TimeEST,TemperatureF,Dew PointF,Humidity,Sea Level PressureIn,VisibilityMPH,Wind Direction,Wind SpeedMPH,Gust SpeedMPH,PrecipitationIn,Events,Conditions,WindDirDegrees,DateUTC
12:53 AM,48.9,39.0,69,30.22,10.0,South,3.5,-,N/A,,Overcast,190,2012-12-01 05:53:00
1:53 AM,48.0,39.0,71,30.22,10.0,Calm,Calm,-,N/A,,Overcast,0,2012-12-01 06:53:00
2:53 AM,51.1,39.0,63,30.23,10.0,SSW,4.6,-,N/A,,Overcast,200,2012-12-01 07:53:00
3:53 AM,46.9,39.9,77,30.25,10.0,Calm,Calm,-,N/A,,Overcast,0,2012-12-01 08:53:00
4:53 AM,48.0,39.9,74,30.25,10.0,SSE,4.6,-,N/A,,Overcast,150,2012-12-01 09:53:00
5:53 AM,48.9,39.0,69,30.26,10.0,SE,3.5,-,N/A,,Overcast,140,2012-12-01 10:53:00
6:53 AM,48.9,39.0,69,30.27,10.0,South,4.6,-,N/A,,Mostly Cloudy,190,2012-12-01 11:53:00
7:53 AM,50.0,39.0,66,30.28,10.0,South,4.6,-,N/A,,Overcast,190,2012-12-01 12:53:00
8:53 AM,51.1,39.9,66,30.29,10.0,South,3.5,-,N/A,,Overcast,170,2012-12-01 13:53:00
9:53 AM,53.1,42.1,66,30.29,10.0,South,6.9,-,N/A,,Overcast,170,2012-12-01 14:53:00
10:53 AM,55.9,44.1,64,30.28,10.0,South,8.1,-,N/A,,Overcast,180,2012-12-01 15:53:00
11:53 AM,57.9,45.0,62,30.27,10.0,SSE,6.9,-,N/A,,Overcast,160,2012-12-01 16:53:00
12:53 PM,60.1,46.0,60,30.23,10.0,SSW,5.8,-,N/A,,Mostly Cloudy,200,2012-12-01 17:53:00
1:53 PM,63.0,45.0,52,30.22,10.0,South,5.8,-,N/A,,Overcast,180,2012-12-01 18:53:00
2:53 PM,63.0,46.0,54,30.19,10.0,South,9.2,-,N/A,,Partly Cloudy,180,2012-12-01 19:53:00
3:53 PM,64.0,44.1,48,30.18,10.0,SSE,8.1,-,N/A,,Clear,160,2012-12-01 20:53:00
4:53 PM,61.0,46.0,58,30.18,10.0,South,6.9,-,N/A,,Clear,170,2012-12-01 21:53:00
5:53 PM,53.1,44.1,71,30.19,10.0,South,4.6,-,N/A,,Clear,180,2012-12-01 22:53:00
6:53 PM,55.0,45.0,69,30.19,10.0,South,6.9,-,N/A,,Clear,170,2012-12-01 23:53:00
7:53 PM,54.0,44.1,69,30.19,10.0,SSE,4.6,-,N/A,,Clear,160,2012-12-02 00:53:00
8:53 PM,53.1,44.1,71,30.17,10.0,SSE,8.1,-,N/A,,Clear,150,2012-12-02 01:53:00
9:53 PM,52.0,43.0,71,30.17,10.0,South,3.5,-,N/A,,Clear,170,2012-12-02 02:53:00
10:53 PM,53.1,44.1,71,30.18,10.0,South,4.6,-,N/A,,Clear,190,2012-12-02 03:53:00
11:53 PM,53.1,45.0,74,30.18,10.0,South,6.9,-,N/A,,Clear,180,2012-12-02 04:53:00